Time,TemperatureF,DewpointF,PressureIn,WindDirection,WindDirectionDegrees,WindSpeedMPH,WindSpeedGustMPH,Humidity,HourlyPrecipIn,Conditions,Clouds,dailyrainin,SoftwareType,DateUTC
2013-03-08 00:00:00,32.2,29.6,30.11,NNW,336,1.0,8.0,90,0.00,,,0.03,Wunderground PWS Mod,2013-03-08 05:00:00,
2013-03-08 00:10:00,32.1,29.5,30.11,North,9,1.0,5.0,90,0.00,,,0.00,Wunderground PWS Mod,2013-03-08 05:10:00,
2013-03-08 00:15:00,32.1,29.5,30.11,North,0,2.0,6.0,90,0.00,,,0.00,Wunderground PWS Mod,2013-03-08 05:15:00,
2013-03-08 00:20:00,32.1,29.5,30.11,North,360,2.0,2.0,90,0.00,,,0.00,Wunderground PWS Mod,2013-03-08 05:20:00,
2013-03-08 00:30:00,32.1,29.5,30.11,NNW,338,1.0,5.0,90,0.00,,,0.00,Wunderground PWS Mod,2013-03-08 05:30:00,
2013-03-08 00:40:00,32.1,29.5,30.11,North,360,2.0,5.0,90,0.00,,,0.00,Wunderground PWS Mod,2013-03-08 05:40:00,
2013-03-08 00:50:00,32.1,29.5,30.11,North,351,2.0,5.0,90,0.00,,,0.00,Wunderground PWS Mod,2013-03-08 05:50:00,
2013-03-08 01:00:00,32.0,29.4,30.11,North,5,2.0,2.0,90,0.00,,,0.00,Wunderground PWS Mod,2013-03-08 06:00:00,
2013-03-08 01:10:00,31.9,29.3,30.11,NNW,331,1.0,6.0,90,0.00,,,0.00,Wunderground PWS Mod,2013-03-08 06:10:00,
2013-03-08 01:15:00,31.8,29.2,30.11,North,0,2.0,6.0,90,0.00,,,0.00,Wunderground PWS Mod,2013-03-08 06:15:00,
2013-03-08 01:20:00,31.8,29.2,30.11,NNE,13,1.0,1.0,90,0.00,,,0.00,Wunderground PWS Mod,2013-03-08 06:20:00,
2013-03-08 01:30:00,31.8,29.2,30.11,NNW,337,2.0,2.0,90,0.00,,,0.00,Wunderground PWS Mod,2013-03-08 06:30:00,
2013-03-08 01:40:00,31.8,29.2,30.11,NE,36,2.0,2.0,90,0.00,,,0.00,Wunderground PWS Mod,2013-03-08 06:40:00,
2013-03-08 01:50:00,31.8,29.2,30.11,North,355,2.0,6.0,90,0.00,,,0.00,Wunderground PWS Mod,2013-03-08 06:50:00,
2013-03-08 02:00:00,31.7,29.1,30.11,NW,312,2.0,6.0,90,0.00,,,0.00,Wunderground PWS Mod,2013-03-08 07:00:00,
2013-03-08 02:10:00,31.7,29.1,30.11,ESE,105,2.0,8.0,90,0.00,,,0.00,Wunderground PWS Mod,2013-03-08 07:10:00,
2013-03-08 02:15:00,31.6,29.0,30.10,North,0,2.0,6.0,90,0.00,,,0.00,Wunderground PWS Mod,2013-03-08 07:15:00,
2013-03-08 02:20:00,31.7,29.1,30.10,North,5,2.0,2.0,90,0.00,,,0.00,Wunderground PWS Mod,2013-03-08 07:20:00,
2013-03-08 02:30:00,31.7,29.1,30.10,ENE,78,2.0,8.0,90,0.00,,,0.00,Wunderground PWS Mod,2013-03-08 07:30:00,
2013-03-08 02:40:00,31.6,29.0,30.09,NNE,23,3.0,3.0,90,0.00,,,0.00,Wunderground PWS Mod,2013-03-08 07:40:00,
2013-03-08 02:50:00,31.6,29.0,30.09,ENE,71,2.0,8.0,90,0.00,,,0.00,Wunderground PWS Mod,2013-03-08 07:50:00,
2013-03-08 03:00:00,31.6,29.0,30.09,North,355,2.0,2.0,90,0.00,,,0.00,Wunderground PWS Mod,2013-03-08 08:00:00,
2013-03-08 03:10:00,31.5,28.9,30.09,NNW,346,2.0,2.0,90,0.00,,,0.00,Wunderground PWS Mod,2013-03-08 08:10:00,
2013-03-08 03:15:00,31.4,28.8,30.09,North,0,3.0,8.0,90,0.00,,,0.00,Wunderground PWS Mod,2013-03-08 08:15:00,
2013-03-08 03:20:00,31.5,28.9,30.09,NW,323,3.0,8.0,90,0.00,,,0.00,Wunderground PWS Mod,2013-03-08 08:20:00,
2013-03-08 03:30:00,31.4,28.8,30.09,NNE,18,2.0,8.0,90,0.00,,,0.00,Wunderground PWS Mod,2013-03-08 08:30:00,
2013-03-08 03:40:00,31.3,29.0,30.09,NW,312,3.0,8.0,91,0.00,,,0.00,Wunderground PWS Mod,2013-03-08 08:40:00,
2013-03-08 03:50:00,31.2,28.9,30.08,NNW,338,2.0,8.0,91,0.00,,,0.00,Wunderground PWS Mod,2013-03-08 08:50:00,
2013-03-08 04:00:00,31.1,28.8,30.08,NE,50,3.0,3.0,91,0.00,,,0.00,Wunderground PWS Mod,2013-03-08 09:00:00,
2013-03-08 04:10:00,31.1,28.8,30.08,NNW,345,3.0,9.0,91,0.00,,,0.00,Wunderground PWS Mod,2013-03-08 09:10:00,
2013-03-08 04:15:00,31.1,28.8,30.08,NNW,338,3.0,8.0,91,0.00,,,0.00,Wunderground PWS Mod,2013-03-08 09:15:00,
2013-03-08 04:20:00,31.1,28.8,30.08,NNW,341,4.0,4.0,91,0.00,,,0.00,Wunderground PWS Mod,2013-03-08 09:20:00,
2013-03-08 04:30:00,31.0,28.7,30.08,NW,324,2.0,9.0,91,0.00,,,0.00,Wunderground PWS Mod,2013-03-08 09:30:00,
2013-03-08 04:40:00,31.1,28.8,30.08,NNW,347,3.0,9.0,91,0.00,,,0.00,Wunderground PWS Mod,2013-03-08 09:40:00,
2013-03-08 04:50:00,31.1,28.8,30.08,NNE,28,3.0,3.0,91,0.00,,,0.00,Wunderground PWS Mod,2013-03-08 09:50:00,
2013-03-08 05:00:00,31.0,28.7,30.08,North,5,2.0,2.0,91,0.00,,,0.00,Wunderground PWS Mod,2013-03-08 10:00:00,
2013-03-08 05:10:00,31.0,28.7,30.08,NNW,339,2.0,9.0,91,0.00,,,0.00,Wunderground PWS Mod,2013-03-08 10:10:00,
2013-03-08 05:15:00,31.0,28.7,30.08,North,0,2.0,7.0,91,0.00,,,0.00,Wunderground PWS Mod,2013-03-08 10:15:00,
2013-03-08 05:20:00,31.0,28.7,30.08,NW,321,2.0,9.0,91,0.00,,,0.00,Wunderground PWS Mod,2013-03-08 10:20:00,
2013-03-08 05:30:00,31.0,28.7,30.08,NE,38,2.0,9.0,91,0.00,,,0.00,Wunderground PWS Mod,2013-03-08 10:30:00,
2013-03-08 05:40:00,30.9,28.6,30.08,North,10,3.0,9.0,91,0.00,,,0.00,Wunderground PWS Mod,2013-03-08 10:40:00,
2013-03-08 05:50:00,30.8,28.5,30.08,North,5,2.0,9.0,91,0.00,,,0.00,Wunderground PWS Mod,2013-03-08 10:50:00,
2013-03-08 06:00:00,30.8,28.5,30.07,NE,44,2.0,2.0,91,0.00,,,0.00,Wunderground PWS Mod,2013-03-08 11:00:00,
2013-03-08 06:10:00,30.8,28.5,30.07,NNW,342,2.0,8.0,91,0.00,,,0.00,Wunderground PWS Mod,2013-03-08 11:10:00,
2013-03-08 06:15:00,31.1,28.5,30.07,North,0,2.0,8.0,90,0.00,,,0.00,Wunderground PWS Mod,2013-03-08 11:15:00,
2013-03-08 06:20:00,31.0,28.7,30.07,ENE,57,2.0,8.0,91,0.00,,,0.00,Wunderground PWS Mod,2013-03-08 11:20:00,
2013-03-08 06:30:00,31.1,28.5,30.07,NNW,338,3.0,8.0,90,0.00,,,0.00,Wunderground PWS Mod,2013-03-08 11:30:00,
2013-03-08 06:40:00,31.2,28.6,30.08,North,355,3.0,3.0,90,0.00,,,0.00,Wunderground PWS Mod,2013-03-08 11:40:00,
2013-03-08 06:50:00,31.3,28.7,30.08,North,355,3.0,8.0,90,0.00,,,0.00,Wunderground PWS Mod,2013-03-08 11:50:00,
2013-03-08 07:00:00,31.3,28.7,30.08,NNE,19,4.0,4.0,90,0.00,,,0.00,Wunderground PWS Mod,2013-03-08 12:00:00,
2013-03-08 07:10:00,31.4,28.8,30.08,South,182,4.0,4.0,90,0.00,,,0.00,Wunderground PWS Mod,2013-03-08 12:10:00,
2013-03-08 07:15:00,31.4,28.8,30.09,North,0,3.0,12.0,90,0.00,,,0.00,Wunderground PWS Mod,2013-03-08 12:15:00,
2013-03-08 07:20:00,31.4,28.8,30.08,North,355,3.0,9.0,90,0.00,,,0.00,Wunderground PWS Mod,2013-03-08 12:20:00,
2013-03-08 07:30:00,31.4,28.8,30.09,NNW,339,3.0,9.0,90,0.00,,,0.00,Wunderground PWS Mod,2013-03-08 12:30:00,
2013-03-08 07:40:00,31.4,28.8,30.09,North,5,3.0,9.0,90,0.00,,,0.00,Wunderground PWS Mod,2013-03-08 12:40:00,
2013-03-08 07:50:00,31.4,28.8,30.09,NE,44,3.0,9.0,90,0.00,,,0.00,Wunderground PWS Mod,2013-03-08 12:50:00,
2013-03-08 08:00:00,31.4,28.8,30.09,West,281,3.0,3.0,90,0.00,,,0.00,Wunderground PWS Mod,2013-03-08 13:00:00,
2013-03-08 08:10:00,31.4,28.8,30.09,NNE,17,3.0,3.0,90,0.00,,,0.00,Wunderground PWS Mod,2013-03-08 13:10:00,
2013-03-08 08:15:00,31.7,29.1,30.08,NNW,338,3.0,11.0,90,0.00,,,0.00,Wunderground PWS Mod,2013-03-08 13:15:00,
2013-03-08 08:20:00,31.5,29.2,30.09,North,355,3.0,12.0,91,0.00,,,0.00,Wunderground PWS Mod,2013-03-08 13:20:00,
2013-03-08 08:30:00,31.7,29.1,30.08,North,355,3.0,12.0,90,0.00,,,0.00,Wunderground PWS Mod,2013-03-08 13:30:00,
2013-03-08 08:40:00,31.9,29.3,30.08,NNW,338,4.0,4.0,90,0.00,,,0.00,Wunderground PWS Mod,2013-03-08 13:40:00,
2013-03-08 08:50:00,32.1,29.2,30.08,NNW,335,3.0,3.0,89,0.00,,,0.00,Wunderground PWS Mod,2013-03-08 13:50:00,
2013-03-08 09:00:00,32.3,29.4,30.09,North,355,3.0,12.0,89,0.00,,,0.00,Wunderground PWS Mod,2013-03-08 14:00:00,
2013-03-08 09:10:00,32.4,29.5,30.09,North,355,3.0,3.0,89,0.00,,,0.00,Wunderground PWS Mod,2013-03-08 14:10:00,
2013-03-08 09:15:00,32.5,29.6,30.09,North,0,3.0,10.0,89,0.00,,,0.00,Wunderground PWS Mod,2013-03-08 14:15:00,
2013-03-08 09:20:00,32.4,29.5,30.09,NW,314,2.0,10.0,89,0.00,,,0.00,Wunderground PWS Mod,2013-03-08 14:20:00,
2013-03-08 09:30:00,32.5,29.6,30.09,ESE,117,3.0,3.0,89,0.00,,,0.00,Wunderground PWS Mod,2013-03-08 14:30:00,
2013-03-08 09:40:00,32.6,29.7,30.10,NE,46,3.0,3.0,89,0.00,,,0.00,Wunderground PWS Mod,2013-03-08 14:40:00,
2013-03-08 09:50:00,32.6,29.7,30.10,NNW,346,3.0,10.0,89,0.00,,,0.00,Wunderground PWS Mod,2013-03-08 14:50:00,
2013-03-08 10:00:00,32.7,29.8,30.10,North,5,3.0,10.0,89,0.00,,,0.00,Wunderground PWS Mod,2013-03-08 15:00:00,
2013-03-08 10:10:00,32.7,29.8,30.10,WNW,303,4.0,4.0,89,0.00,,,0.00,Wunderground PWS Mod,2013-03-08 15:10:00,
2013-03-08 10:15:00,32.7,29.8,30.10,North,0,3.0,12.0,89,0.00,,,0.00,Wunderground PWS Mod,2013-03-08 15:15:00,
2013-03-08 10:20:00,32.7,29.8,30.10,NW,313,3.0,10.0,89,0.00,,,0.00,Wunderground PWS Mod,2013-03-08 15:20:00,
2013-03-08 10:30:00,32.7,29.8,30.11,ENE,62,3.0,10.0,89,0.00,,,0.00,Wunderground PWS Mod,2013-03-08 15:30:00,
2013-03-08 10:40:00,32.8,30.2,30.11,NNW,344,2.0,10.0,90,0.00,,,0.00,Wunderground PWS Mod,2013-03-08 15:40:00,
2013-03-08 10:50:00,32.8,30.2,30.11,North,9,3.0,3.0,90,0.00,,,0.00,Wunderground PWS Mod,2013-03-08 15:50:00,
2013-03-08 11:00:00,32.9,30.3,30.11,NNE,15,3.0,10.0,90,0.00,,,0.00,Wunderground PWS Mod,2013-03-08 16:00:00,
2013-03-08 11:10:00,33.0,30.4,30.11,NW,325,3.0,11.0,90,0.00,,,0.00,Wunderground PWS Mod,2013-03-08 16:10:00,
2013-03-08 11:15:00,33.4,30.8,30.11,North,0,4.0,14.0,90,0.00,,,0.00,Wunderground PWS Mod,2013-03-08 16:15:00,
2013-03-08 11:20:00,33.2,30.6,30.11,NE,51,4.0,11.0,90,0.00,,,0.00,Wunderground PWS Mod,2013-03-08 16:20:00,
2013-03-08 11:30:00,33.4,30.8,30.11,NNE,30,4.0,11.0,90,0.00,,,0.00,Wunderground PWS Mod,2013-03-08 16:30:00,
2013-03-08 11:40:00,33.6,30.7,30.11,WNW,297,3.0,11.0,89,0.00,,,0.00,Wunderground PWS Mod,2013-03-08 16:40:00,
2013-03-08 11:50:00,33.8,30.9,30.11,North,360,4.0,11.0,89,0.00,,,0.00,Wunderground PWS Mod,2013-03-08 16:50:00,
2013-03-08 12:00:00,34.1,31.2,30.11,NNW,345,4.0,4.0,89,0.00,,,0.00,Wunderground PWS Mod,2013-03-08 17:00:00,
2013-03-08 12:10:00,34.3,31.4,30.11,NNE,31,3.0,3.0,89,0.00,,,0.00,Wunderground PWS Mod,2013-03-08 17:10:00,
2013-03-08 12:15:00,35.1,31.9,30.10,North,0,3.0,10.0,88,0.00,,,0.00,Wunderground PWS Mod,2013-03-08 17:15:00,
2013-03-08 12:20:00,34.6,31.7,30.10,NNW,346,3.0,3.0,89,0.00,,,0.00,Wunderground PWS Mod,2013-03-08 17:20:00,
2013-03-08 12:30:00,35.1,31.9,30.10,North,9,4.0,4.0,88,0.00,,,0.00,Wunderground PWS Mod,2013-03-08 17:30:00,
2013-03-08 12:40:00,35.5,32.3,30.09,NNW,330,3.0,12.0,88,0.00,,,0.00,Wunderground PWS Mod,2013-03-08 17:40:00,
2013-03-08 12:50:00,36.2,32.4,30.08,NW,309,5.0,5.0,86,0.00,,,0.00,Wunderground PWS Mod,2013-03-08 17:50:00,
2013-03-08 13:00:00,36.9,33.1,30.08,ESE,104,3.0,3.0,86,0.00,,,0.00,Wunderground PWS Mod,2013-03-08 18:00:00,
2013-03-08 13:10:00,37.2,33.1,30.09,North,5,3.0,13.0,85,0.00,,,0.00,Wunderground PWS Mod,2013-03-08 18:10:00,
2013-03-08 13:15:00,37.0,32.9,30.10,North,0,3.0,11.0,85,0.01,,,0.03,Wunderground PWS Mod,2013-03-08 18:15:00,
2013-03-08 13:20:00,36.9,32.5,30.10,North,5,4.0,4.0,84,0.00,,,0.00,Wunderground PWS Mod,2013-03-08 18:20:00,
2013-03-08 13:30:00,37.0,32.9,30.10,NW,322,3.0,13.0,85,0.00,,,0.01,Wunderground PWS Mod,2013-03-08 18:30:00,
2013-03-08 13:40:00,36.8,33.0,30.11,SE,144,3.0,13.0,86,0.00,,,0.01,Wunderground PWS Mod,2013-03-08 18:40:00,
2013-03-08 13:50:00,36.8,32.7,30.11,NNW,348,4.0,4.0,85,0.04,,,0.02,Wunderground PWS Mod,2013-03-08 18:50:00,
2013-03-08 14:00:00,36.7,32.6,30.12,NNE,27,4.0,13.0,85,0.05,,,0.03,Wunderground PWS Mod,2013-03-08 19:00:00,
2013-03-08 14:10:00,36.3,32.5,30.13,East,84,4.0,12.0,86,0.06,,,0.04,Wunderground PWS Mod,2013-03-08 19:10:00,
2013-03-08 14:15:00,35.6,32.1,30.14,North,0,3.0,14.0,87,0.05,,,0.09,Wunderground PWS Mod,2013-03-08 19:15:00,
2013-03-08 14:20:00,35.8,32.0,30.13,NNE,30,3.0,12.0,86,0.05,,,0.05,Wunderground PWS Mod,2013-03-08 19:20:00,
2013-03-08 14:30:00,35.6,32.1,30.13,West,280,3.0,12.0,87,0.07,,,0.06,Wunderground PWS Mod,2013-03-08 19:30:00,
2013-03-08 14:40:00,35.5,32.0,30.14,SSW,213,3.0,12.0,87,0.05,,,0.07,Wunderground PWS Mod,2013-03-08 19:40:00,
2013-03-08 14:50:00,35.6,32.1,30.13,WNW,286,4.0,4.0,87,0.07,,,0.08,Wunderground PWS Mod,2013-03-08 19:50:00,
2013-03-08 15:00:00,36.0,32.2,30.13,SSE,158,3.0,12.0,86,0.05,,,0.09,Wunderground PWS Mod,2013-03-08 20:00:00,
2013-03-08 15:10:00,36.4,32.6,30.12,ENE,75,3.0,14.0,86,0.07,,,0.10,Wunderground PWS Mod,2013-03-08 20:10:00,
2013-03-08 15:15:00,37.0,33.2,30.13,East,90,3.0,9.0,86,0.06,,,0.16,Wunderground PWS Mod,2013-03-08 20:15:00,
2013-03-08 15:20:00,36.7,32.6,30.12,ENE,68,3.0,14.0,85,0.06,,,0.11,Wunderground PWS Mod,2013-03-08 20:20:00,
2013-03-08 15:30:00,36.9,33.1,30.13,SE,131,3.0,3.0,86,0.08,,,0.12,Wunderground PWS Mod,2013-03-08 20:30:00,
2013-03-08 15:40:00,37.3,32.9,30.12,East,90,3.0,14.0,84,0.07,,,0.13,Wunderground PWS Mod,2013-03-08 20:40:00,
2013-03-08 15:50:00,37.3,32.9,30.13,SE,139,3.0,14.0,84,0.06,,,0.14,Wunderground PWS Mod,2013-03-08 20:50:00,
2013-03-08 16:00:00,37.4,32.7,30.13,WSW,240,4.0,4.0,83,0.07,,,0.16,Wunderground PWS Mod,2013-03-08 21:00:00,
2013-03-08 16:10:00,37.7,32.7,30.14,East,93,3.0,13.0,82,0.06,,,0.16,Wunderground PWS Mod,2013-03-08 21:10:00,
2013-03-08 16:15:00,38.2,32.9,30.15,SE,135,3.0,10.0,81,0.06,,,0.21,Wunderground PWS Mod,2013-03-08 21:15:00,
2013-03-08 16:20:00,37.8,32.8,30.15,NNE,31,3.0,13.0,82,0.05,,,0.17,Wunderground PWS Mod,2013-03-08 21:20:00,
2013-03-08 16:30:00,38.2,32.9,30.15,East,98,3.0,3.0,81,0.06,,,0.18,Wunderground PWS Mod,2013-03-08 21:30:00,
2013-03-08 16:40:00,38.2,33.2,30.15,SE,145,3.0,13.0,82,0.06,,,0.19,Wunderground PWS Mod,2013-03-08 21:40:00,
2013-03-08 16:50:00,38.4,33.4,30.16,NNW,327,3.0,13.0,82,0.07,,,0.20,Wunderground PWS Mod,2013-03-08 21:50:00,
2013-03-08 17:00:00,38.7,33.7,30.16,North,355,3.0,13.0,82,0.05,,,0.21,Wunderground PWS Mod,2013-03-08 22:00:00,
2013-03-08 17:10:00,38.9,33.9,30.17,SE,135,3.0,11.0,82,0.06,,,0.22,Wunderground PWS Mod,2013-03-08 22:10:00,
2013-03-08 17:15:00,39.3,34.0,30.18,East,90,2.0,9.0,81,0.06,,,0.25,Wunderground PWS Mod,2013-03-08 22:15:00,
2013-03-08 17:20:00,39.1,34.1,30.18,ENE,59,2.0,11.0,82,0.04,,,0.23,Wunderground PWS Mod,2013-03-08 22:20:00,
2013-03-08 17:30:00,39.3,34.0,30.18,SE,126,2.0,11.0,81,0.04,,,0.23,Wunderground PWS Mod,2013-03-08 22:30:00,
2013-03-08 17:40:00,39.4,34.1,30.18,East,91,2.0,11.0,81,0.05,,,0.24,Wunderground PWS Mod,2013-03-08 22:40:00,
2013-03-08 17:50:00,39.3,34.0,30.18,NNE,13,2.0,11.0,81,0.00,,,0.24,Wunderground PWS Mod,2013-03-08 22:50:00,
2013-03-08 18:00:00,39.4,34.1,30.19,NNW,342,3.0,11.0,81,0.00,,,0.25,Wunderground PWS Mod,2013-03-08 23:00:00,
2013-03-08 18:10:00,39.4,34.1,30.20,NE,42,3.0,3.0,81,0.04,,,0.26,Wunderground PWS Mod,2013-03-08 23:10:00,
2013-03-08 18:15:00,39.5,33.8,30.21,ESE,113,3.0,8.0,80,0.03,,,0.28,Wunderground PWS Mod,2013-03-08 23:15:00,
2013-03-08 18:20:00,39.4,33.7,30.21,NNW,333,2.0,2.0,80,0.04,,,0.26,Wunderground PWS Mod,2013-03-08 23:20:00,
2013-03-08 18:30:00,39.5,33.5,30.21,ESE,105,3.0,3.0,79,0.00,,,0.27,Wunderground PWS Mod,2013-03-08 23:30:00,
2013-03-08 18:40:00,39.5,33.5,30.22,ENE,78,2.0,9.0,79,0.00,,,0.27,Wunderground PWS Mod,2013-03-08 23:40:00,
2013-03-08 18:50:00,39.4,33.7,30.22,WNW,299,3.0,9.0,80,0.00,,,0.28,Wunderground PWS Mod,2013-03-08 23:50:00,
2013-03-08 19:00:00,39.3,33.6,30.22,NE,42,3.0,9.0,80,0.00,,,0.28,Wunderground PWS Mod,2013-03-09 00:00:00,
2013-03-08 19:10:00,39.3,33.3,30.23,ENE,74,3.0,9.0,79,0.00,,,0.28,Wunderground PWS Mod,2013-03-09 00:10:00,
2013-03-08 19:15:00,38.9,32.9,30.24,North,0,3.0,9.0,79,0.02,,,0.30,Wunderground PWS Mod,2013-03-09 00:15:00,
2013-03-08 19:20:00,39.0,33.0,30.23,South,169,2.0,9.0,79,0.00,,,0.29,Wunderground PWS Mod,2013-03-09 00:20:00,
2013-03-08 19:30:00,38.9,32.9,30.23,North,10,2.0,9.0,79,0.00,,,0.29,Wunderground PWS Mod,2013-03-09 00:30:00,
2013-03-08 19:40:00,38.9,32.6,30.24,South,171,2.0,9.0,78,0.00,,,0.30,Wunderground PWS Mod,2013-03-09 00:40:00,
2013-03-08 19:50:00,38.9,32.3,30.24,NW,309,2.0,9.0,77,0.00,,,0.30,Wunderground PWS Mod,2013-03-09 00:50:00,
2013-03-08 20:00:00,38.9,32.3,30.24,NE,53,2.0,2.0,77,0.00,,,0.30,Wunderground PWS Mod,2013-03-09 01:00:00,
2013-03-08 20:10:00,38.9,32.0,30.25,East,96,3.0,3.0,76,0.00,,,0.30,Wunderground PWS Mod,2013-03-09 01:10:00,
2013-03-08 20:15:00,38.6,31.7,30.26,North,0,3.0,9.0,76,0.02,,,0.31,Wunderground PWS Mod,2013-03-09 01:15:00,
2013-03-08 20:20:00,38.9,32.0,30.25,East,84,3.0,8.0,76,0.00,,,0.31,Wunderground PWS Mod,2013-03-09 01:20:00,
2013-03-08 20:30:00,38.7,31.8,30.26,ENE,64,3.0,8.0,76,0.00,,,0.31,Wunderground PWS Mod,2013-03-09 01:30:00,
2013-03-08 20:40:00,38.3,31.4,30.26,NNE,26,3.0,3.0,76,0.00,,,0.31,Wunderground PWS Mod,2013-03-09 01:40:00,
2013-03-08 20:50:00,38.1,31.2,30.26,NE,42,3.0,3.0,76,0.00,,,0.31,Wunderground PWS Mod,2013-03-09 01:50:00,
2013-03-08 21:00:00,38.0,31.1,30.27,NE,49,2.0,8.0,76,0.00,,,0.31,Wunderground PWS Mod,2013-03-09 02:00:00,
2013-03-08 21:10:00,37.9,30.7,30.27,SE,127,2.0,9.0,75,0.00,,,0.32,Wunderground PWS Mod,2013-03-09 02:10:00,
2013-03-08 21:15:00,37.7,30.2,30.27,North,0,3.0,10.0,74,0.01,,,0.32,Wunderground PWS Mod,2013-03-09 02:15:00,
2013-03-08 21:20:00,37.8,30.6,30.27,North,360,3.0,3.0,75,0.00,,,0.32,Wunderground PWS Mod,2013-03-09 02:20:00,
2013-03-08 21:30:00,37.7,30.2,30.27,North,351,3.0,9.0,74,0.00,,,0.32,Wunderground PWS Mod,2013-03-09 02:30:00,
2013-03-08 21:40:00,37.6,30.1,30.28,North,355,3.0,9.0,74,0.00,,,0.32,Wunderground PWS Mod,2013-03-09 02:40:00,
2013-03-08 21:50:00,37.3,29.8,30.27,North,5,2.0,9.0,74,0.00,,,0.32,Wunderground PWS Mod,2013-03-09 02:50:00,
2013-03-08 22:00:00,37.1,29.2,30.27,NE,41,2.0,2.0,73,0.00,,,0.32,Wunderground PWS Mod,2013-03-09 03:00:00,
2013-03-08 22:10:00,37.2,29.0,30.27,North,11,3.0,9.0,72,0.00,,,0.32,Wunderground PWS Mod,2013-03-09 03:10:00,
2013-03-08 22:15:00,37.1,28.9,30.27,North,0,3.0,10.0,72,0.00,,,0.32,Wunderground PWS Mod,2013-03-09 03:15:00,
2013-03-08 22:20:00,37.1,28.9,30.28,East,86,3.0,9.0,72,0.00,,,0.32,Wunderground PWS Mod,2013-03-09 03:20:00,
2013-03-08 22:30:00,37.1,28.9,30.28,NNW,348,3.0,9.0,72,0.00,,,0.32,Wunderground PWS Mod,2013-03-09 03:30:00,
2013-03-08 22:40:00,36.9,28.7,30.28,NE,43,3.0,9.0,72,0.00,,,0.32,Wunderground PWS Mod,2013-03-09 03:40:00,
2013-03-08 22:50:00,36.9,28.7,30.27,NNE,16,3.0,9.0,72,0.00,,,0.32,Wunderground PWS Mod,2013-03-09 03:50:00,
2013-03-08 23:00:00,36.7,28.9,30.27,NE,56,3.0,9.0,73,0.00,,,0.32,Wunderground PWS Mod,2013-03-09 04:00:00,
2013-03-08 23:10:00,36.5,28.3,30.27,NNE,27,2.0,9.0,72,0.00,,,0.32,Wunderground PWS Mod,2013-03-09 04:10:00,
2013-03-08 23:15:00,36.4,28.6,30.28,North,0,3.0,10.0,73,0.00,,,0.32,Wunderground PWS Mod,2013-03-09 04:15:00,
2013-03-08 23:20:00,36.5,28.3,30.28,ENE,67,2.0,9.0,72,0.00,,,0.32,Wunderground PWS Mod,2013-03-09 04:20:00,
2013-03-08 23:30:00,36.4,28.6,30.28,ENE,69,3.0,9.0,73,0.00,,,0.32,Wunderground PWS Mod,2013-03-09 04:30:00,
2013-03-08 23:40:00,36.1,28.3,30.28,NE,53,3.0,9.0,73,0.00,,,0.32,Wunderground PWS Mod,2013-03-09 04:40:00,
2013-03-08 23:50:00,35.9,28.1,30.27,NNW,346,3.0,3.0,73,0.00,,,0.32,Wunderground PWS Mod,2013-03-09 04:50:00,